Regional Weather Roundup
Issued by NWS San Diego, CA

Home | Current Version | Previous Version | Text Only | Print | Product List | Glossary On
Versions: 1 2 3 4 5 6 7 8 9 10 11 12 13 14 15 16 17 18 19 20 21 22 23 24 25 26 27 28 29 30 31 32 33 34 35 36 37 38 39 40 41 42 43 44 45 46 47 48 49
000
ASUS46 KSGX 300611
RWRSGX

SAN DIEGO HOURLY WEATHER ROUNDUP
NATIONAL WEATHER SERVICE SAN DIEGO CA
1100 PM PDT MON JUN 29 2015

NOTE: "FAIR" INDICATES FEW OR NO CLOUDS BELOW 12,000 FEET WITH NO
SIGNIFICANT WEATHER AND/OR OBSTRUCTIONS TO VISIBILITY.

CAZ042-043-060-061-PZZ750-775-300700-

GREATER SAN DIEGO AREA

CITY           SKY/WX    TMP DP  RH WIND       PRES   REMARKS
LINDBERGH FLD  PTCLDY    69  62  78 CALM      29.92F
POINT LOMA       N/A     65  62  90 NW6         N/A
CHULA VISTA      N/A     67  65  91 CALM      29.85R
IMPERIAL BEACH PTCLDY    64  61  90 SE3       29.92R
BROWN FIELD    CLEAR     65  62  90 CALM      29.92S
MONTGOMERY FLD CLEAR     68  62  81 NE3       29.93R

$$

NORTH SAN DIEGO COUNTY

CITY           SKY/WX    TMP DP  RH WIND       PRES   REMARKS
CAMP PENDLETON PTCLDY    66  61  84 CALM      29.91S
OCEANSIDE AP   CLEAR     66  61  84 CALM      29.90S
VISTA            N/A     67  62  83 CALM      29.89S
CARLSBAD       CLEAR     68  63  84 CALM      29.91S
DEL MAR          N/A     65  63  93 CALM      29.93S
FALLBROOK        N/A     67  66  96 CALM      29.90S
SAN MARCOS       N/A     67  62  84 CALM      29.89S
POWAY            N/A     67  62  83 CALM      29.92S

$$

EAST SAN DIEGO COUNTY

CITY           SKY/WX    TMP DP  RH WIND       PRES   REMARKS
RAMONA         CLEAR     68  60  75 CALM      29.95R
SANTEE LAKES     N/A     69  64  83 CALM      29.90S
LA MESA          N/A     67  62  85 CALM      29.67R
JAMUL            N/A     66  62  86 CALM      29.90R
DESCANSO N       N/A     70  55  57 CALM      29.75R
CAMPO            N/A     70  61  73 NE5       29.98R

$$

ORANGE COUNTY AND THE LOS ANGELES BASIN

CITY           SKY/WX    TMP DP  RH WIND       PRES   REMARKS
JOHN WAYNE AP  CLEAR     69  63  81 SW3       29.91R
LAKE FOREST FR   N/A     70  60  69 CALM      29.81R
SANTA ANA        N/A     69  63  80 CALM      29.86S
LOS ALAMITOS   FAIR      67  65  93 S3        29.91R
FULLERTON      CLEAR     71  61  70 S5        29.90S
LONG BEACH     CLEAR     71  63  75 SE3       29.91R
L.A. AP        PTCLDY    67  60  78 W7        29.92R
L.A. DOWNTOWN  CLEAR     70  56  61 CALM      29.91R

$$

THE INLAND EMPIRE

CITY           SKY/WX    TMP DP  RH WIND       PRES   REMARKS
CORONA         CLEAR     72  60  65 W7        29.92R
CHINO          CLEAR     74  59  59 CALM      29.93R
ONTARIO        MOCLDY    76  58  53 SW5       29.93R
RIVERSIDE AP   CLEAR     78  58  49 CALM      29.93R
MORENO VALLEY    N/A     78  59  52 CALM      29.93R
MARCH ARB      CLEAR     76  54  46 W5        29.95R
HORSETHIEF CYN   N/A     76  52  42 CALM      29.86R
PERRIS           N/A     78  55  44 CALM        N/A
MENIFEE          N/A     79  60  52 CALM      30.00R
HEMET EAST       N/A     79  52  39 CALM      29.89R
FRENCH VALLEY  FAIR      73  57  56 CALM      29.95S
TEMECULA         N/A     73  61  66 CALM      29.89R

$$

SAN BERNARDINO AND RIVERSIDE COUNTY MOUNTAINS

CITY           SKY/WX    TMP DP  RH WIND       PRES   REMARKS
BIG BEAR AP    MOCLDY    57  45  62 CALM      30.33S
PINE COVE        N/A     69  53  55 CALM      29.85R

$$

SOUTHERN DESERT INCLUDING THE COACHELLA VALLEY

CITY           SKY/WX    TMP DP  RH WIND       PRES   REMARKS
PALM SPRINGS   PTCLDY    98  53  22 NW8       29.82R HX  96
THOUSAND PALMS   N/A     96  53  23 W6        29.79R
PALM DESERT      N/A     96  57  26 CALM      26.26  HX  95
THERMAL        PTCLDY    94  61  33 NW8       29.74S
BLYTHE         MOCLDY   101  60  25 W10       29.77S HX 101
IMPERIAL AP    PTCLDY    96  63  33 S8        29.75S HX  97
EL CENTRO NAS  PTCLDY    95  62  33 S10       29.77S HX  96
YUMA AZ        MOCLDY    91  69  48 S8        29.79F HX  96

$$

UPPER DESERT

CITY           SKY/WX    TMP DP  RH WIND       PRES   REMARKS
VICTORVILLE AP PTCLDY    84  45  24 CALM      30.02R
HESPERIA         N/A     81  55  40 CALM      29.94R
APPLE VALLEY     N/A     86  47  25 CALM      30.06R
PALMDALE       CLEAR     83  41  22 W9        30.00R
LANCASTER      CLEAR     83  40  21 W10       29.98S
EDWARDS AFB    PTCLDY    85  48  27 SW10      29.95R
DAGGETT        MOCLDY    93  49  22 SW12      29.92R
29 PALMS N     PTCLDY    93  53  25 CALM      29.98R
NEEDLES        CLOUDY   106  52  16 SW15      29.79R HX 103

$$

REGIONAL REPORTS

CITY           SKY/WX    TMP DP  RH WIND       PRES   REMARKS
SANTA BARBARA  PTCLDY    64  59  83 SE5       29.88S
SANDBERG       CLEAR     78  49  35 NW8       30.16S
LAS VEGAS NV   CLOUDY   100  48  17 S12       29.83R HX  96
PHOENIX AZ     TSTM      90  67  46 E14G20    29.85R
TIJUANA        CLEAR     66  59  77 CALM      29.94R
ENSENADA NW      N/A     67  32  27 CALM      29.89R

$$

OFFSHORE ISLANDS

CITY           SKY/WX    TMP DP  RH WIND       PRES   REMARKS
CATALINA ARPT  CLEAR     74  48  39 SE3       29.97S
SAN NICOLAS IS PTCLDY   N/A N/A N/A W9        29.92S

$$

MARINE AND OFFSHORE BUOY REPORTS

STATION/POSITION SKY/WX   TEMP    WIND        PRES    SWELL
                          AIR SEA DIR/SP/G            HT/PER/DIR
                          (F)     (DEG/KT/KT) (MB)    (FT/S/D)
TANNER BANKS               60 62  320/ 14/ 16 1013.8F   5/310/ 7
S CLEMENTE BASIN           64 67  300/ 10/ 12 1012.8R   5/290/ 7
SAN NICOLAS IS.               62                N/A     2/190/14
SO. S. ROSA ISLA           59 60  310/ 19/ 21 1011.8F   2/ 8
W. S. BARBARA CH           58 58  310/ 19/ 23 1011.4R   2/310/ 9
M. S. BARBARA CH           60 64  230/ 12/ 14 1012.6R
S. MONICA BASIN            65 67  230/  4/  4 1012.8R   3/180/15
S PEDRO CHANNEL               66                N/A     2/170/12
DANA POINT                    67                N/A     2/200/14
OCEANSIDE OFFSHR              71                N/A     2/210/18
TORREY PINES OTR              70                N/A     2/210/18
LA JOLLA 1                 67 69   CALM  /  1 1012.7R
MISSION BAY BUOY              70                N/A     2/200/14
SAN DIEGO BAY                 71              1013.2R
POINT LOMA SOUTH              70                N/A     2/200/15

$$



USA.gov is the U.S. government's official web portal to all federal, state and local government web resources and services.